Location: Newark
(3.1475°N, 101.6933°E)
Time: 22:48:46
(UTC+00:00)

Envisat - Pass Details

Date: 29 September 2019
Orbit: 764 x 766 km, 98.1° (Epoch: 21 October)

Event Time Altitude Azimuth Distance (km) Brightness Sun altitude
Rises 11:55:50 0° 173° (S) 3,229 6.2 -13.2°
Reaches altitude 10° 11:58:09 10° 176° (S) 2,301 5.5 -13.7°
Maximum altitude 12:03:11 67° 258° (WSW) 828 3.4 -15.0°
Drops below altitude 10° 12:08:12 10° 340° (NNW) 2,294 5.7 -16.2°
Sets 12:10:31 0° 343° (NNW) 3,217 6.4 -16.8°
